Regional Weather Roundup
Issued by NWS

Home | Current Version | Previous Version | Text Only | Print | Product List | Glossary Off
Versions: 1 2 3 4 5 6 7 8 9 10 11 12 13 14 15 16 17 18 19 20 21 22 23 24 25 26 27 28 29 30 31 32 33 34 35 36 37 38 39 40 41 42 43 44 45 46 47 48 49 50

000
ASUS43 KLOT 180510
RWRIL

ILLINOIS REGIONAL WEATHER ROUNDUP
NATIONAL WEATHER SERVICE CHICAGO/ROMEOVILLE IL
1200 AM CDT FRI APR 18 2014

NOTE: "FAIR" INDICATES FEW OR NO CLOUDS BELOW 12,000 FEET WITH NO
SIGNIFICANT WEATHER AND/OR OBSTRUCTIONS TO VISIBILITY.

* THESE STATIONS ARE NOT UNDER NWS QUALITY CONTROL. THEY ALSO MAY NOT
  REPORT WEATHER SUCH AS PRECIPITATION OR FOG.

ILZ001-002-007-009-015-016-024-180600-
NORTHWEST ILLINOIS

CITY           SKY/WX    TMP DP  RH WIND       PRES   REMARKS
MOLINE         PTCLDY    40  33  76 W3        30.28R
STERLING*      MOCLDY    45  36  70 NW8       30.27R
SAVANNA*       CLEAR     43  34  70 NW8       30.29R
$$

ILZ003-004-008-010-011-017-018-180600-
NORTH CENTRAL ILLINOIS

CITY           SKY/WX    TMP DP  RH WIND       PRES   REMARKS
ROCKFORD       CLOUDY    45  36  70 NW9       30.28R
FREEPORT*      PTCLDY    41  36  81 NW6       30.29R
ROCHELLE*      MOCLDY    42  37  82 NW6       30.26S
DE KALB*       CLOUDY    45  36  72 W7        30.25S
PERU*          CLOUDY    46  38  73 CALM      30.27R
$$

ILZ005-006-012>014-019>023-180600-
NORTHEAST ILLINOIS

CITY           SKY/WX    TMP DP  RH WIND       PRES   REMARKS
CHICAGO-OHARE  CLOUDY    49  37  63 E6        30.24S
CHICAGO-MIDWAY CLOUDY    53  39  59 W6        30.25S
AURORA         CLOUDY    43  38  82 CALM      30.25S
LANSING*       LGT RAIN  51  41  67 W3        30.26R
WAUKEGAN       MOCLDY    41  36  82 CALM      30.24S
DUPAGE AIRPORT CLOUDY    46  38  73 W5        30.24S
KANKAKEE*      DRIZZLE   49  43  78 W3        30.28R
WHEELING       MOCLDY    47  37  68 SE3       30.26S
MORRIS*        CLOUDY    48  36  63 SW6       30.26R
ROMEOVILLE*    CLOUDY    47  38  71 SW3       30.26R
NORTHERLY ISL    N/A     46  37  71 MISG        N/A
$$

LMZ740>746-180600-
SOUTHERN LAKE MICHIGAN

STATION/POSITION SKY/WX   TEMP    WIND        PRES    VSBY  WAVE
                          AIR SEA DIR/SP/G                  HT/PER
                          (F)     (DEG/KT/KT) (MB)    (MI)  (FT/S)
WAUKEGAN HARBOR            44     190/  5/  6 1025.4S
HARRISON CRIB              44      70/  1/  2   N/A
BURNHAM HARBOR             46      40/  2/  4   N/A
CALUMET HARBOR             46      80/  4/  6 1025.3R
MICHIGAN CITY              44      30/  6/  6   N/A
$$

ILZ025>027-034>036-040-047-049-050-058-095>099-180600-
WEST-CENTRAL ILLINOIS

CITY           SKY/WX    TMP DP  RH WIND       PRES   REMARKS
QUINCY         CLOUDY    45  37  73 CALM      30.28R
GALESBURG*     MOCLDY    40  36  84 W5        30.27S
MACOMB*        MOCLDY    40  35  82 NW8       30.30R
JACKSONVILLE*  CLOUDY    47  39  72 NW3       30.30R
PITTSFIELD*    CLOUDY    47  39  73 CALM      30.30R
$$

ILZ028>032-037-038-041>044-048-051>054-059>061-180600-
CENTRAL ILLINOIS

CITY           SKY/WX    TMP DP  RH WIND       PRES   REMARKS
PONTIAC        LGT RAIN  52  41  66 NW3       30.27S
BLOOMINGTON    CLOUDY    48  36  63 NW6       30.29R
DECATUR        CLOUDY    51  40  65 NW7       30.27S
PEORIA         CLOUDY    48  36  63 W3        30.28R
LACON*         CLOUDY    45  38  75 CALM      30.28R
LINCOLN*       CLOUDY    49  39  68 CALM      30.28S
SPRINGFIELD    CLOUDY    50  37  61 N3        30.29R
TAYLORVILLE    CLOUDY    46  41  81 N5        30.27S
$$

ILZ033-039-045-046-055>057-062-063-180600-
EAST-CENTRAL ILLINOIS

CITY           SKY/WX    TMP DP  RH WIND       PRES   REMARKS
CHAMPAIGN      CLOUDY    50  40  68 CALM      30.26S
RANTOUL*       CLOUDY    54  40  58 CALM      30.27R
MATTOON        MOCLDY    50  41  71 CALM      30.26S
PARIS*         PTCLDY    47  40  75 CALM      30.27S
$$

ILZ079-100>102-180600-
SOUTHWEST ILLINOIS

CITY           SKY/WX    TMP DP  RH WIND       PRES   REMARKS
ALTON          CLOUDY    52  39  62 CALM      30.28R
BELLEVILLE     CLOUDY    55  42  63 N8        30.25S
CAHOKIA*       CLOUDY    54  43  66 N5        30.27S
SPARTA*        CLOUDY    52  41  66 CALM      30.25S
$$

ILZ064>066-069>071-074>076-080>082-084>086-088>090-092>094-180600-
SOUTH-CENTRAL ILLINOIS

CITY           SKY/WX    TMP DP  RH WIND       PRES   REMARKS
CARBONDALE     PTCLDY    47  40  76 NW3       30.24F
CAIRO*         PTCLDY    52  45  76 CALM      30.23F
MARION         PTCLDY    48  41  76 CALM      30.25S
MT. VERNON     PTCLDY    43  34  70 CALM      30.25F
CENTRALIA*       N/A     49  40  70 CALM      30.25F
SALEM*         MOCLDY    53  39  59 CALM      30.26S
METROPOLIS*    PTCLDY    48  43  81 CALM      30.23F
$$

ILZ067-068-072-073-078-083-087-091-180600-
SOUTHEAST ILLINOIS

CITY           SKY/WX    TMP DP  RH WIND       PRES   REMARKS
FAIRFIELD*     CLEAR     52  43  71 CALM      30.25S
HARRISBURG*    PTCLDY    49  44  84 CALM      30.26S
ROBINSON*      CLEAR     49  43  80 CALM      30.27S
CARMI*         PTCLDY    49  46  91 CALM      30.25S
$$

ABBREVIATIONS USED IN REMARKS
   TC - TEMPERATURE IN CELSIUS
  WCI - WIND CHILL INDEX
   HX - HEAT INDEX
  VSB - VISIBILITY
$$




USA.gov is the U.S. government's official web portal to all federal, state and local government web resources and services.